ICEYE-X2 (43800 NORAD) Tracking and Keplerian Element Data

This shows tracking and keplerian element data for the satellite.

Feedback or suggestion? Click here.




ElementValue
Catalog43800
NameICEYE-X2
Epoch Orbit33747
Epoch Day35.15987785
Epoch Year2025
RAAN93.4253
Inclination97.5081
Eccentricity0.001129
Argument of Perigee220.3462
Mean Anonmoly139.6931
Mean Motion15.0945886
Decay Rate9.764E-05
L11 43800U 18099AU 25035.15987785 .00009764 00000+0 61261-3 0 9991
L22 43800 97.5081 93.4253 0011290 220.3462 139.6931 15.09458860337477



Live tracking and technical data element details for ICEYE-X2 (NORAD 43800). ICEYE-X2 can be tracked NOW for your location showing map with azimuth and elevation plus other details from your city location.







IsCatalogInMostPopularTable: catalog: 43800, numindb: 481
Update: records affected: 1



GetName: 43800 ICEYE-X2

Hit Count: updated at: Thu, 15 May 2025 19:36:31 GMT